Location: *
(43.9905°S, 176.4941°W)
Time: 11:32:08
(UTC+00:00)

Cosmos 1992 Rocket - Pass Details

Date: 08 December 2019
Orbit: 758 x 767 km, 74.0° (Epoch: 27 January)

Event Time Altitude Azimuth Distance (km) Brightness Sun altitude
Rises 07:50:26 0° 339° (NNW) 3,230 7.0 -5.5°
Reaches altitude 10° 07:52:47 10° 338° (NNW) 2,312 6.3 -5.8°
Maximum altitude 07:58:04 83° 250° (WSW) 788 4.2 -6.5°
Drops below altitude 10° 08:03:24 10° 161° (SSE) 2,341 6.8 -7.2°
Sets 08:05:48 0° 159° (SSE) 3,273 7.6 -7.6°
